Погода в Ялтуровске

Погода в Ялтуровске : погода сейчас, прогноз погоды и архив. Всё, что Вы хотите узнать о погоде в Ялтуровске!

Хотите узнать прогноз погоды в Ялтуровске? Тогда Вам сюда: Погода в Ялтуровске

Поиск расширенной информации на нашем сайте:

Другие новости

Новости СМИ2

Главная страница сайта

Новости сайта

02.10.2013

Напоминаем, что на нашем новом сайте вы можете получить высокодетализированные прогнозы погоды по пунктам России, СНГ и мира (включающие важные для авиации метеовеличины, такие как направление и скорость ветра, видимость, явления погоды, количество и форма облачности, нижняя и верхняя граница облачности), а также ознакомиться с разнообразными материалами по авиационной метеорологии и подборкой полезных ссылок на эту тему.

Сайт Метеоцентр.Азия посвящён разработке технологий оптимизации авиаметеорологического обслуживания, включая проектирование и перспективное создание нескольких автоматизированных авиаметеорологических систем:
- система выпуска высокодетальных прогностических карт явлений погоды для нижнего воздушного пространства по России и ближнему зарубежью;
- система верификации прогнозов TAF (выпускаемых синоптиками официальных АМСГ РФ и ближнего зарубежья) и AUTOTAF (выпускаемых сайтом Метеоцентр.Азия) - выявление ошибок, онлайн-сопоставление с фактической погодой METAR, автоматическое внесение коррективов в прогнозы при резком отклонении фактической погоды от прогноза, подсчёт оправдываемости прогнозов по элементам и в целом;
- система обработки, анализа и отображения авиаметеорологической информации для применения провайдерами метеорологической информации.

Рекомендуем: Информация полировка фар цена здесь.

Погода в Ялтуровске - сегодня

Время (UTC), дата Ветер
(°,м/с) 
Видим.   Явления Облачность Т
(°С)
Тd
(°С)
f(%) Тe
(°С)
Pmin
(гПа)
dP
(гПа)
Po
(мм)
O2
(г/м3)
Тmin Tmax R s Состояние
почвы
06 26.05.17 180 (Ю) 20000 м    3/0 верхняя 
[Ci fib]
+15.6 -2.9 28 +15  1022.8  -0.6  762  291           
09 26.05.17 180 (Ю) 5{11}  20000 м    3/0 верхняя 
[Ci fib]
+18.7 -1 26 +19  1020.3  -2.4  760  287           
12 26.05.17 200 (Ю) 6{10}  20000 м    3/0 верхняя 
[Ci fib]
+20.7 +1.3 27 +21  1017.9  -2.4  758  284           
15 26.05.17 180 (Ю) 3{10}  20000 м    4/0 верхняя 
[Ci sp]
+17 +5 45 +17  1016.1  -1.9  757  286    +21       
18 26.05.17 190 (Ю) 20000 м    4/0 верхняя 
[Ci sp]
+13.4 +6.4 63 +13  1015.2  -0.9  756  289           
21 26.05.17 160 (Ю) 20000 м    3/0 верхняя 
[Ci sp]
+13.8 +6.1 60 +13  1013.7  -1.5  755  289           
00 27.05.17 170 (Ю) 20000 м    8/0 верхняя 
[Ci sp]
+12.5 +6.4 66 +12  1012.7  -1  754  289           
03 27.05.17 180 (Ю) 20000 м    8/0 верхняя 
[Ci sp]
+18 +7.7 51 +18  1011.5  -1.1  753  283  +11.5         
06 27.05.17 180 (Ю) 20000 м    8/0 средняя, верхняя 
[Ac trans|Ci sp]
+22.5 +8 39 +23  1009.9  -1.5  752  279           
09 27.05.17 190 (Ю) 3{11}  20000 м    10/0 средняя 
[As op]
+23 +8.3 39 +23  1008.3  -1.6  751  278           
12 27.05.17 170 (Ю) 3{11}  20000 м    9/8 600 м кучево-дожд., средняя, верхняя 
[Cb calv|Ac trans|Ci sp]
+22.4 +5.2 33 +22  1006.2  -2.1  749  278           
18 27.05.17 130 (ЮВ) 20000 м    8/4 600 м кучево-дожд., верхняя 
[Cb calv|Ci sp]
+16.2 +4.5 46 +17  1001.8  -2.2  746  283           
21 27.05.17 120 (ЮВ) 20000 м    3/0 верхняя 
[Ci fib]
+13 +5 58 +14  999.3  -2.5  744  285           
00 28.05.17 060 (СВ) 20000 м    8/0 верхняя 
[Ci fib]
+9.8 +6.2 78 +11  997.1  -2.3  742  288           
03 28.05.17 тихо ()   20000 м    10/5 600 м кучево-дожд., верхняя 
[Cb calv|Ci sp]
+14.7 +8.2 65 +15  995.8  -1.2  741  282  +9.2         
06 28.05.17 180 (Ю) 20000 м    10/0 средняя, верхняя 
[As op|Ci sp]
+17.7 +10.3 62 +20  994.9  -0.8  741  278           
09 28.05.17 250 (З) 20000 м    10/5 1000 м средняя, верхняя 
[Cu med, cong|As op|Ci fib]
+23.3 +10 43 +25  994.4  -0.4  741  273           
15 28.05.17 310 (СЗ) 8-13{16}  20000 м  {ливн. осадки}  10/10 600 м кучево-дожд. 
[Cb calv]
+10.2 +7.7 84 +8  1000.4  4.9  745  288    +24  0.5     
21 28.05.17 350 (С) 3{11}  20000 м    10/0 средняя, верхняя 
[As op|Ci sp]
+4.7 +1.5 80 +4  1005.3  1.5  748  296           
00 29.05.17 340 (С) 20000 м    10/0 средняя 
[As op]
+3.9 +0.5 78 +2  1006  0.7  749  297           
03 29.05.17 010 (С) 20000 м    10/0 средняя 
[As op]
+4.5 +0.8 77 +3  1006.2  0.2  749  297  +3.8         
06 29.05.17 350 (С) 20000 м    10/10 600 м 
[Sc]
+6 +0.3 67 +5  1006.2  749  295           
09 29.05.17 320 (СЗ) 20000 м    10/10 600 м кучево-дожд. 
[Cb calv]
+6.8 +0.3 63 +5  1005.3  -0.8  748  294           
12 29.05.17 350 (С) 4000 м  слаб. ливневой дождь  10/10 600 м кучево-дожд. 
[Cb calv]
+5.4 +0.8 72 +4  1005.7  0.4  749  296           
15 29.05.17 350 (С) 20000 м  {ливн. осадки}  10/10 600 м 
[Sc]
+5.1 -0.3 68 +3  1006.1  0.4  749  296    +7.5     
Время (UTC), дата Ветер
(°,м/с) 
Видим.   Явления Облачность Т
(°С)
Тd
(°С)
f(%) Тe
(°С)
Pmin
(гПа)
dP
(гПа)
Po
(мм)
O2
(г/м3)
Тmin Tmax R s Состояние
почвы

Для получения пояснительной информации подведите курсор к названию столбца.

ПОГОДА в Ялтуровске - архив

Всё, что Вы хотите узнать о погоде в Ялтуровске - удобно и подробно!

Выберите нужную дату (начиная с 1 января 2015* года) и нажмите кнопку "Найти".
Будут отображены архивные сводки погоды по пункту Ялтуровск, начиная с указанной даты.


Отображать данные в формате CSV (для использования в таблицах Excel)


Внимание! Наш архив погоды предназначен исключительно для личного некоммерческого использования в познавательных целях. Если Вам необходимы официальные справки о состоянии погоды (для производственных, юридических, коммерческих и т.п. целей), обращайтесь в органы Росгидромета.

*Примечание: данная дата относится к архиву по метеостанциям СССР (Россия, СНГ, Балтия).
Архив по метеостанциям Зарубежной Европы и Азии (кроме Китая) хранится 10 дней, по другим регионам земного шара (Китай, Африка, Америка, Австралия, Океания) - 1 день.

Ялтуровск - район местоположения метеостанции


Название, широта, долгота, высота метеостанции:
Ялтуровск 56.7°ш. 66.3°д. 61 м над ур. моря [Российская Федерация]

Дополнительная информация

В oтличие oт бoльшинства пoгoдных сайтoв мы публикуем пoдрoбную метеoинфoрмацию в детальнoм прoфессиoнальнoм фoрмате.

Характеристики температуры и влажнoсти вoздуха измеряются на высoте 2 м в тени вдали oт зданий и деревьев.
Скoрoсть ветра измеряется на высoте 10 м (на урoвне рoста челoвека скoрoсть ветра ниже в 1.5-2 раза). Если метеoстанция нахoдится в гoрoде или в лесу, тo скoрoсть ветра занижена на 2-4 м/с пo сравнению с oткрытым местoм. Скoрoсть ветра над акватoриями крупных рек и oзёр, а также на вершинах хoлмoв на 2-5 м/с выше, чем в oбычных услoвиях.
Атмoсфернoе давление в разных тoчках местнoсти мoжет значительнo oтличаться oт давления на метеoстанции, в зависимoсти oт услoвий рельефа (при пoдъёме на 10 м давление пoнижается примернo на 1 мм рт.ст.).